Погода в Березнике

Россия / Архангельская область     62°51′04″N   42°43′21″E
темп.,
°C
ветер,
м/с
пор.,
м/с
влажн.,
%
обл.,
%
осадки,
мм/ч
давл.,
гПа
погр.,
м
24 сентября, пт
пт2400:00+7вюв3989100 0.0 1016321
03:00+7юв41191100 0.0 1014441
06:00+6вюв41294100 0.0 1013409
09:00+8вюв51188100 0.0 1011696
12:00+8юв41195100 2.1 10111040
15:00+9юв51193100 2.4 1011942
18:00+9юв41195100 0.1 1011789
21:00+8юв41095100 0.1 1011627
25 сентября, сб
сб2500:00+8юв389699 0.3 1011518
03:00+8ююв3896100 0.3 1011588
06:00+8юв389599 0.0 1010313
09:00+9ююв398999 0.1 1010563
12:00+10ююв378298 0.0 1010757
15:00+12ююв357333 0.3 10091065
18:00+8юв259444 0.1 1010108
21:00+7юв3896100 0.1 1010206
26 сентября, вс
вс2600:00+6вюв279975 0.0 1010171
03:00+7вюв399793 0.0 1011282
06:00+7вюв289786 0.0 1012298
09:00+9вюв3690100 0.0 1013479
12:00+9в2382100 0.0 1015595
15:00+10всв237698 0.1 1017566
18:00+8всв1394100 0.1 1019106
21:00+8св1293100 0.1 102047
27 сентября, пн
пн2700:00+8ссв139399 0.0 1022110
03:00+7ссв2495100 0.0 1023126
06:00+7ссв2596100 0.0 1025163
09:00+8ссв2589100 0.0 1026299
12:00+9св1389100 0.0 1028237
15:00+9св138997 0.0 1029202
18:00+7св119418 0.0 103010
21:00+6св1195100 0.0 103112
28 сентября, вт
вт2800:00+7сз1193100 0.0 103117
03:00+7сз1193100 0.0 103130
06:00+7сз259597 0.0 1031169
09:00+8ссз258384 0.0 1032304
12:00+10сз2470100 0.0 1032476
15:00+11ссз2468100 0.0 1032754
18:00+8сз258693 0.0 1032157
21:00+7ссз138966 0.0 1032105